sat.trackr.live / text

‹ back to catalog

STARLINK-34064

NORAD 64114 · 2025-110U

PAYLOAD ACTIVE UNKNOWN

§ Identity

Operator
Country
US
Launch date
2025-05-23
Launch site
AFWTR
Launch vehicle
Mass (kg)
RCS (m²)

Purposes: comms

External: N2YO · Heavens-Above · Gunter

§ Orbital elements

Epoch: 2026-09-20T05:11:42.166464Z

Period
94.01 min
Inclination
53.1578°
Eccentricity
0.0000706
Mean motion
15.31748419 rev/d
Perigee alt
470.1 km
Apogee alt
471.1 km
Semi-major
6,848.7 km
B*
7.4553e-4
RAAN
201.9169°
Arg perigee
84.6883°
Mean anomaly
275.4199°
Rev number
7,568

§ Raw data

STARLINK-340641 64114U 25110U   26263.21646026  .00022876  00000+0  74553-3 0  99922 64114  53.1578 201.9169 0000706  84.6883 275.4199 15.31748419 75681

JSON: /api/v1/satellites/64114 · /tle

For live sub-satellite position, see the globe view (requires WebGL).

§ Visibility from observer

Set your observer location to see the next 7 days of passes ≥ 10°. The values pass through the URL so the page stays shareable.

No JS? Fill the form by hand. The geolocation button needs JavaScript.